Date String (YYYY-MM-DD hh:mm:ss) UTC,Instrument flags,absolute air pressure of the measurement (hPa),sample flow rate (lpm),inlet stack bypass flow (lpm),air temperature of the measurement (°C),ambient temperature measured by the external sensor (°C),aerosol sample conditioner tube jacket temperature (°C),OPC LED temperature (°C),internal box temperature (°C),relative humidity of the measurement (%),span deviation,mass concentration of particles derived from Lorenz-Mie calculation of OPC scattering (μg/m³),mass concentration of particles derived from Lorenz-Mie calculation of OPC scattering (μg/m³),mass concentration of particles derived from Lorenz-Mie calculation of OPC scattering (μg/m³)
DateTimeUTC,F1_M11,P_M11,Q1_M11,Q2_M11,T1_M11,T2_M11,T3_M11,T4_M11,T5_M11,U1_M11,ZSPAN_M11,X0_M11,X2_M11,X1_M11
2023-10-26 18:00:00,SystemResetWarning,0823.8,5.00,000.00,028.7,027.4,000.0,037.1,030.3,20.8,-002.3,0011.88,0007.62,0007.22
2023-10-26 18:01:00,SystemResetWarning,0823.7,5.00,000.00,028.7,027.4,000.0,037.2,030.4,20.8,-002.5,0011.82,0007.62,0007.22
2023-10-26 18:02:00,SystemResetWarning,0823.6,5.00,000.00,028.7,027.4,000.0,037.2,030.4,20.8,-002.6,0011.98,0007.60,0007.21
2023-10-26 18:03:00,SystemResetWarning,0823.5,5.00,000.00,028.7,027.4,000.0,037.2,030.4,20.7,-002.7,0012.34,0007.60,0007.19
2023-10-26 18:04:00,SystemResetWarning,0823.5,5.00,000.00,028.8,027.4,000.0,037.2,030.4,20.7,-002.8,0012.31,0007.59,0007.18
2023-10-26 18:05:00,SystemResetWarning,0823.4,5.01,000.00,028.8,027.4,000.0,037.2,030.4,20.7,-002.8,0012.28,0007.56,0007.17
2023-10-26 18:06:00,SystemResetWarning,0823.5,5.00,000.00,028.7,027.5,000.0,037.2,030.4,20.6,-002.7,0011.73,0007.51,0007.14
2023-10-26 18:07:00,SystemResetWarning,0823.5,5.00,000.00,028.8,027.5,000.0,037.2,030.4,20.4,-002.6,0011.59,0007.49,0007.12
2023-10-26 18:08:00,SystemResetWarning,0823.5,4.99,000.00,028.8,027.5,000.0,037.2,030.4,20.4,-002.9,0011.60,0007.46,0007.09
2023-10-26 18:09:00,SystemResetWarning,0823.5,4.99,000.00,028.8,027.5,000.0,037.2,030.4,20.5,-003.0,0011.50,0007.44,0007.07
2023-10-26 18:10:00,SystemResetWarning,0823.5,5.00,000.00,028.8,027.5,000.0,037.2,030.4,20.6,-002.9,0011.38,0007.44,0007.06
2023-10-26 18:11:00,SystemResetWarning,0823.6,5.00,000.00,028.8,027.5,000.0,037.2,030.4,20.6,-002.8,0011.93,0007.42,0007.05
2023-10-26 18:12:00,SystemResetWarning,0823.6,5.01,000.00,028.8,027.5,000.0,037.2,030.4,20.5,-002.5,0011.91,0007.44,0007.06
2023-10-26 18:13:00,SystemResetWarning,0823.6,5.00,000.00,028.8,027.5,000.0,037.2,030.4,20.6,-002.3,0011.69,0007.45,0007.08
2023-10-26 18:14:00,SystemResetWarning,0823.6,5.01,000.00,028.8,027.5,000.0,037.2,030.4,20.5,-002.4,0011.41,0007.42,0007.07
2023-10-26 18:15:00,SystemResetWarning,0823.6,5.00,000.00,028.8,027.5,000.0,037.2,030.5,20.5,-002.2,0011.32,0007.41,0007.06
2023-10-26 18:16:00,SystemResetWarning,0823.6,4.99,000.00,028.8,027.5,000.0,037.2,030.5,20.5,-002.2,0011.29,0007.40,0007.04
2023-10-26 18:17:00,SystemResetWarning,0823.6,5.00,000.00,028.8,027.5,000.0,037.2,030.5,20.4,-002.1,0011.45,0007.45,0007.04
2023-10-26 18:18:00,SystemResetWarning,0823.5,4.99,000.00,028.8,027.6,000.0,037.3,030.5,20.4,-002.1,0011.52,0007.45,0007.04
2023-10-26 18:19:00,SystemResetWarning,0823.5,5.00,000.00,028.8,027.6,000.0,037.3,030.5,20.4,-001.6,0011.53,0007.48,0007.07
2023-10-26 18:20:00,SystemResetWarning,0823.4,5.00,000.00,028.8,027.6,000.0,037.3,030.5,20.5,-001.4,0011.56,0007.50,0007.09
2023-10-26 18:21:00,SystemResetWarning,0823.4,4.99,000.00,028.9,027.6,000.0,037.3,030.5,20.5,-001.6,0011.56,0007.50,0007.08
2023-10-26 18:22:00,SystemResetWarning,0823.5,5.00,000.00,028.9,027.6,000.0,037.3,030.5,20.5,-001.7,0010.87,0007.48,0007.08
2023-10-26 18:23:00,SystemResetWarning,0823.5,5.00,000.00,028.9,027.5,000.0,037.3,030.5,20.5,-001.7,0010.58,0007.46,0007.08
2023-10-26 18:24:00,SystemResetWarning,0823.5,5.00,000.00,028.9,027.6,000.0,037.3,030.5,20.5,-002.0,0010.72,0007.49,0007.08
2023-10-26 18:25:00,SystemResetWarning,0823.5,5.00,000.00,028.9,027.6,000.0,037.3,030.5,20.5,-002.2,0010.69,0007.54,0007.11
2023-10-26 18:26:00,SystemResetWarning,0823.4,5.00,000.00,028.9,027.6,000.0,037.3,030.5,20.6,-002.2,0010.77,0007.55,0007.13
2023-10-26 18:27:00,SystemResetWarning,0823.4,5.00,000.00,028.9,027.6,000.0,037.3,030.5,20.6,-002.3,0010.90,0007.59,0007.16
2023-10-26 18:28:00,SystemResetWarning,0823.5,5.01,000.00,028.9,027.6,000.0,037.3,030.5,20.6,-002.2,0010.93,0007.63,0007.20
2023-10-26 18:29:00,SystemResetWarning,0823.5,5.00,000.00,028.9,027.6,000.0,037.3,030.5,20.7,-002.2,0011.23,0007.68,0007.26
2023-10-26 18:30:00,SystemResetWarning,0823.5,5.00,000.00,028.9,027.5,000.0,037.3,030.4,20.7,-002.4,0011.36,0007.70,0007.27
2023-10-26 18:31:00,SystemResetWarning,0823.4,5.00,000.00,028.8,027.5,000.0,037.3,030.4,20.7,-002.3,0011.37,0007.72,0007.29
2023-10-26 18:32:00,SystemResetWarning,0823.4,5.00,000.00,028.8,027.5,000.0,037.3,030.4,20.7,-002.0,0011.43,0007.77,0007.34
2023-10-26 18:33:00,SystemResetWarning,0823.4,5.00,000.00,028.8,027.5,000.0,037.3,030.4,20.6,-001.6,0011.48,0007.82,0007.37
2023-10-26 18:34:00,SystemResetWarning,0823.4,5.00,000.00,028.9,027.5,000.0,037.3,030.5,20.6,-001.6,0011.55,0007.86,0007.39
2023-10-26 18:35:00,SystemResetWarning,0823.4,4.99,000.00,028.9,027.5,000.0,037.3,030.5,20.6,-001.6,0011.56,0007.87,0007.43
2023-10-26 18:36:00,SystemResetWarning,0823.5,4.99,000.00,028.9,027.6,000.0,037.3,030.5,20.7,-001.5,0011.69,0007.91,0007.48
2023-10-26 18:37:00,SystemResetWarning,0823.4,4.99,000.00,028.9,027.6,000.0,037.3,030.5,20.6,-001.4,0012.11,0007.97,0007.54
2023-10-26 18:38:00,SystemResetWarning,0823.4,5.00,000.00,028.9,027.6,000.0,037.3,030.5,20.6,-001.5,0012.67,0008.03,0007.58
2023-10-26 18:39:00,SystemResetWarning,0823.4,5.01,000.00,028.9,027.6,000.0,037.3,030.5,20.7,-001.7,0012.65,0008.05,0007.61
2023-10-26 18:40:00,SystemResetWarning,0823.4,5.00,000.00,028.9,027.5,000.0,037.3,030.5,20.7,-002.0,0012.50,0008.07,0007.60
2023-10-26 18:41:00,SystemResetWarning,0823.4,5.01,000.00,028.9,027.5,000.0,037.3,030.4,20.8,-002.2,0012.39,0008.10,0007.63
2023-10-26 18:42:00,SystemResetWarning,0823.5,5.00,000.00,028.9,027.4,000.0,037.3,030.4,20.8,-002.3,0012.54,0008.18,0007.71
2023-10-26 18:43:00,SystemResetWarning,0823.4,4.99,000.00,028.9,027.4,000.0,037.3,030.4,20.9,-002.4,0012.53,0008.23,0007.77
2023-10-26 18:44:00,SystemResetWarning,0823.4,4.99,000.00,028.9,027.4,000.0,037.3,030.4,20.9,-002.6,0012.70,0008.33,0007.86
2023-10-26 18:45:00,SystemResetWarning,0823.4,5.00,000.00,028.9,027.4,000.0,037.3,030.4,20.9,-002.4,0013.22,0008.43,0007.95
2023-10-26 18:46:00,SystemResetWarning,0823.4,5.00,000.00,028.8,027.4,000.0,037.3,030.4,20.9,-002.5,0013.31,0008.53,0007.99
2023-10-26 18:47:00,SystemResetWarning,0823.4,4.99,000.00,028.8,027.4,000.0,037.3,030.4,20.9,-002.6,0013.39,0008.60,0008.01
2023-10-26 18:48:00,SystemResetWarning,0823.4,5.01,000.00,028.8,027.4,000.0,037.3,030.3,20.9,-002.5,0014.02,0008.65,0008.03
2023-10-26 18:49:00,SystemResetWarning,0823.5,5.01,000.00,028.8,027.4,000.0,037.3,030.3,21.0,-002.3,0013.82,0008.66,0008.06
2023-10-26 18:50:00,SystemResetWarning,0823.5,5.00,000.00,028.8,027.4,000.0,037.3,030.3,21.0,-002.0,0013.92,0008.70,0008.10
2023-10-26 18:51:00,SystemResetWarning,0823.4,5.00,000.00,028.8,027.3,000.0,037.3,030.3,20.9,-001.9,0015.10,0008.75,0008.15
2023-10-26 18:52:00,SystemResetWarning,0823.4,5.00,000.00,028.8,027.3,000.0,037.3,030.3,20.9,-001.8,0015.37,0008.79,0008.20
2023-10-26 18:53:00,SystemResetWarning,0823.4,5.00,000.00,028.8,027.3,000.0,037.3,030.2,21.0,-001.8,0016.22,0008.81,0008.20
2023-10-26 18:54:00,SystemResetWarning,0823.5,5.00,000.00,028.8,027.3,000.0,037.3,030.3,21.1,-002.2,0016.89,0008.83,0008.18
2023-10-26 18:55:00,SystemResetWarning,0823.4,5.00,000.00,028.8,027.3,000.0,037.3,030.3,21.1,-002.6,0017.65,0008.83,0008.18
2023-10-26 18:56:00,SystemResetWarning,0823.4,5.00,000.00,028.8,027.3,000.0,037.3,030.3,21.1,-002.8,0017.34,0008.83,0008.18
2023-10-26 18:57:00,SystemResetWarning,0823.3,4.99,000.00,028.8,027.3,000.0,037.3,030.3,21.1,-002.8,0017.30,0008.86,0008.21
2023-10-26 18:58:00,SystemResetWarning,0823.2,4.99,000.00,028.8,027.3,000.0,037.3,030.2,21.2,-002.7,0017.51,0008.85,0008.23
2023-10-26 18:59:00,SystemResetWarning,0823.3,4.99,000.00,028.8,027.3,000.0,037.3,030.3,21.2,-002.7,0016.73,0008.85,0008.26
